This is the latest recevied weather packets stored in our database for station/object KC4JIR. If no packets are shown the sender has not sent any weather packets the latest 10 day(s).
| Time | Temp. | Humidity | Pressure | Rain* | Wind** | Luminosity | Snow |
|---|---|---|---|---|---|---|---|
| 1777588141 | 23.89° C | 66% | 1007.6 hPa | 0 mm | - | 79 W/m² | - |
| 1777587837 | 23.89° C | 66% | 1007.3 hPa | 0 mm | - | 88 W/m² | - |
| 1777587537 | 23.89° C | 67% | 1007.4 hPa | 0 mm | - | 88 W/m² | - |
| 1777587233 | 24.44° C | 66% | 1007.4 hPa | 0 mm | - | 106 W/m² | - |
| 1777586928 | 24.44° C | 65% | 1007.4 hPa | 0 mm | - | 124 W/m² | - |
| 1777586625 | 24.44° C | 65% | 1007.5 hPa | 0 mm | - | 125 W/m² | - |
| 1777586321 | 24.44° C | 64% | 1007.4 hPa | 0 mm | - | 122 W/m² | - |
| 1777586019 | 24.44° C | 63% | 1007.5 hPa | 0 mm | - | 152 W/m² | - |
| 1777585718 | 24.44° C | 64% | 1007.4 hPa | 0 mm | - | 127 W/m² | - |
| 1777585413 | 24.44° C | 63% | 1007.6 hPa | 0 mm | - | 121 W/m² | - |
| 1777585108 | 24.44° C | 61% | 1007.5 hPa | 0 mm | - | 195 W/m² | - |
| 1777584805 | 24.44° C | 64% | 1007.6 hPa | 0 mm | - | 152 W/m² | - |
| 1777584503 | 24.44° C | 62% | 1007.7 hPa | 0 mm | - | 124 W/m² | - |
| 1777584199 | 24.44° C | 62% | 1007.7 hPa | 0 mm | - | 152 W/m² | - |
| 1777583898 | 24.44° C | 61% | 1007.6 hPa | 0 mm | - | 179 W/m² | - |
| 1777583594 | 25° C | 61% | 1007.7 hPa | 0 mm | - | 207 W/m² | - |
| 1777583293 | 25° C | 60% | 1007.5 hPa | 0 mm | - | 315 W/m² | - |
| 1777582987 | 25° C | 61% | 1007.6 hPa | 0 mm | - | 247 W/m² | - |
| 1777582686 | 25° C | 62% | 1007.8 hPa | 0 mm | - | 202 W/m² | - |
| 1777582381 | 25° C | 64% | 1007.7 hPa | 0 mm | - | 320 W/m² | - |
| 1777582079 | 25° C | 63% | 1007.6 hPa | 0 mm | - | 247 W/m² | - |
| 1777581774 | 25° C | 62% | 1007.8 hPa | 0 mm | - | 219 W/m² | - |
| 1777581473 | 25° C | 62% | 1007.7 hPa | 0 mm | - | 224 W/m² | - |
| 1777581167 | 24.44° C | 65% | 1007.6 hPa | 0 mm | - | 301 W/m² | - |
| 1777580862 | 25° C | 65% | 1007.6 hPa | 0 mm | - | 221 W/m² | - |
* Rain latest hour (hover to see other rain measurements)
** Current wind speed in m/s (hover to see current wind gust speed)